BEIDOU-3 IGSO-2 (C39)

Last updated on Tue Aug 25 2026 00:03:25 GMT+0000 (Coordinated Universal Time)

1 44337U 19035A 26234.72561712 -.00000165 00000+0 00000+0 0 9998 2 44337 55.2512 158.2792 0038881 211.6656 341.8916 1.00280313 26336
UTC large
Height (km)
Speed (km/s)
/
Latitude / Longitude
Inclination (degrees)
Orbital Period (minutes)
Azimuth
Elevation
Range (km)
Doppler Factor

Next 0 passes for location: London (51.5072 / 0.1276)

No passes found over London.
BEIDOU-3 IGSO-2 (C39)